FW7073 Weather Reports


Display with metric or nautical units.
time (UTC)temp
F
wind
direction
speed
MPH
gust
MPH
rain 1hr
in
rain 24hr
in
rain mn
in
humidity
%
barometer
mb
20260503060121 69 286 2.0 5.0 0.00 0.00 0.00 75 1009.2
20260503054548 70 316 1.0 5.0 0.00 0.00 0.00 74 1009.1
20260503053052 71 323 2.0 7.0 0.00 0.00 0.00 72 1009.0
20260503051555 71 258 2.0 5.0 0.00 0.00 0.00 70 1009.2
20260503050100 72 272 2.0 7.0 0.00 0.00 0.00 69 1009.2
20260503044553 73 312 3.0 7.0 0.00 0.00 0.00 67 1008.9
20260503043056 74 289 4.0 10.0 0.00 0.00 0.00 65 1008.6
20260503041600 76 254 4.0 11.0 0.00 0.00 0.00 61 1008.2
20260503040103 78 298 3.0 6.0 0.00 0.00 0.00 55 1008.2
20260503034610 78 257 2.0 7.0 0.00 0.00 0.00 53 1007.7
20260503033100 80 267 3.0 7.0 0.00 0.00 0.00 46 1007.7
20260503031603 80 290 1.0 7.0 0.00 0.00 0.00 42 1007.5
20260503030108 82 279 1.0 5.0 0.00 0.00 0.00 39 1007.5
20260503024555 83 260 3.0 7.0 0.00 0.00 0.00 36 1007.4
20260503023101 84 321 3.0 6.0 0.00 0.00 0.00 37 1007.3
20260503021501 85 23 0.0 3.0 0.00 0.00 0.00 37 1007.2
20260503020112 86 324 2.0 4.0 0.00 0.00 0.00 36 1007.2
20260503014603 87 321 2.0 6.0 0.00 0.00 0.00 34 1007.3
20260503013003 87 328 3.0 9.0 0.00 0.00 0.00 34 1007.5
20260503011507 88 315 3.0 8.0 0.00 0.00 0.00 33 1007.5
20260503010124 88 330 3.0 6.0 0.00 0.00 0.00 33 1007.5
20260503004504 89 322 3.0 8.0 0.00 0.00 0.00 32 1007.5
20260503003009 89 101 3.0 8.0 0.00 0.00 0.00 32 1007.6
20260503001516 89 316 4.0 6.0 0.00 0.00 0.00 32 1007.6
20260503000005 89 23 3.0 9.0 0.00 0.00 0.00 32 1007.6
20260502234514 89 78 4.0 8.0 0.00 0.00 0.00 32 1007.8
20260502233020 90 326 2.0 8.0 0.00 0.00 0.00 32 1007.9
20260502231524 89 333 2.0 8.0 0.00 0.00 0.00 32 1008.1
20260502230026 90 302 3.0 6.0 0.00 0.00 0.00 32 1008.4
20260502224515 89 59 3.0 7.0 0.00 0.00 0.00 32 1008.7
20260502223020 89 299 2.0 5.0 0.00 0.00 0.00 32 1009.1
20260502221524 89 296 3.0 7.0 0.00 0.00 0.00 33 1009.4
20260502220029 89 61 4.0 12.0 0.00 0.00 0.00 34 1009.7
20260502214533 88 38 4.0 10.0 0.00 0.00 0.00 34 1009.9
20260502213028 88 212 0.0 9.0 0.00 0.00 0.00 35 1010.1
20260502211528 88 288 4.0 10.0 0.00 0.00 0.00 37 1010.4
20260502210041 89 290 2.0 5.0 0.00 0.00 0.00 36 1010.6
20260502204525 89 259 1.0 4.0 0.00 0.00 0.00 34 1010.8
20260502203030 87 296 1.0 5.0 0.00 0.00 0.00 36 1011.1
20260502201545 86 39 0.0 3.0 0.00 0.00 0.00 40 1011.3
20260502200038 86 302 3.0 5.0 0.00 0.00 0.00 41 1011.5
20260502194531 86 219 0.0 2.0 0.00 0.00 0.00 44 1011.9
20260502193031 85 224 0.0 3.0 0.00 0.00 0.00 47 1011.9